COSMOS 249 DEB, 6764

Orbit data source: Space-Track

COSMOS 249 DEB, 6764 is space debris in LEO originally from a launch on Sun, 20 Oct 1968 UTC launched from the Tyuratam Missile And Space Complex (TTMTR). Debris objects in space refer to the collection of defunct objects orbiting the Earth. Examples of debris include non-operational satellites, rocket bodies, and fragments generated from explosions, collisions, or faulty payload assembly.

Loading next visibility...
Identifier
6764, 1968-091CK
Orbit
LEO
Country
Flag of CISCIS
Related business
Manufacturer
Unknown
Mission
Spacecraft
Bus & Motor
Unknown
Mass
Unknown
Launch date (UTC)
1968-10-20 (58 years ago)
Launch vehicle
Unknown
Launch site
Tyuratam Missile And Space Complex (TTMTR)
Object type
Payload
Rocket body
Debris
Shape & HBR
Unknown shape, 0.1 m
Radar Cross Section
Medium (>0.1 m² and <1 m²)

Expand to show TLE details & history
Last TLE update: 3 days ago

TLE from 3 days ago
0 COSMOS 249 DEB
1 06764U 68091CK  26172.63501789  .00000331  00000-0  11254-2 0  9996
2 06764  62.3434  49.4285 0763444 357.3170  25.0880 12.38195566725725
Epoch: 2026-06-21T15:14Z
TLE epoch observation values (Epoch: 2026-06-21T15:14:25.545Z)
Latitude
23.29004°
Longitude
-76.04322°
Altitude
979.287 km
Speed
7.61 km/s
True Right ascension
04h 09m 34s
True Declination
23° 10' 09"
Sunlit
Object was in daylight at epoch
Visualization orbit readout
Latitude
Unknown
Longitude
Unknown
Altitude
Unknown
Speed
Unknown
Apparent Right ascension
Unknown
Apparent Declination
Unknown
Sunlit
N/A
Visualization observer readout
Local Sidereal Time
21:04:46
Azimuth
Unknown
Elevation
Unknown
Doppler factor
Unknown
Orbital elements
Apogee altitude
2,115.736 km
Perigee altitude
910.806 km
Semi-major axis
7,891.408 km
Eccentricity
0.07634
Inclination
62.3434°
RAAN
49.4285°
Arg. of periapsis
357.317°
True anomaly
29.14343°
Mean anomaly
25.088°
Eccentric anomaly
27.07924°
Mean motion
3.09607 °/min
Orbital period
116.28 mins
BSTAR
0.0011254
Loading maneuver chart data...
Computing Atmospheric mass density...
Loading historical data...
Loading historical data...
Loading historical data...
Loading historical data...
Loading historical data...
Loading historical data...
Loading historical data...

Documentation

Showing up to 5 results
|